Location: Brno
(49.2000°N, 16.6330°E)
Time: 13:58:41
(UTC+02:00)

ISS - Visible Passes

Search period start: 21 October 2014 00:00
Search period end: 30 October 2014 23:00
Orbit: 413 x 416 km, 51.6° (Epoch: 20 October)

Date Brightness Start Highest point End Pass type
(mag) Time Alt. Az. Time Alt. Az. Time Alt. Az.
21 Oct -3.2 18:41:31 10° WNW 18:44:52 66° NNE 18:47:39 14° E visible
21 Oct -1.5 20:18:20 10° WNW 20:20:31 30° WSW 20:20:31 30° WSW visible
22 Oct -2.9 19:29:13 10° WNW 19:32:31 57° SSW 19:33:31 38° SSE visible
23 Oct -3.2 18:40:07 10° WNW 18:43:28 80° SSW 18:46:35 12° ESE visible
23 Oct -0.8 20:17:21 10° W 20:19:27 19° SW 20:19:27 19° SW visible
24 Oct -1.5 19:27:54 10° W 19:30:50 28° SW 19:32:36 18° SSE visible
25 Oct -2.1 18:38:36 10° WNW 18:41:47 42° SSW 18:44:58 10° SE visible
26 Oct -0.4 18:27:05 10° WSW 18:28:50 14° SW 18:30:35 10° SSW visible
27 Oct -0.7 17:37:14 10° W 17:39:49 21° SW 17:42:23 10° SSE visible
